Printer-friendly version

IAU Minor Planet Center

Minor Planet Center

MPEC 2008-A19 : 2007 VQ4

The following Minor Planet Electronic Circular may be linked-to from your own Web pages, but must not otherwise be redistributed electronically.


Read MPEC 2008-A18 Read MPEC 2008-A20


M.P.E.C. 2008-A19                                Issued 2008 Jan. 2, 20:52 UT

     The Minor Planet Electronic Circulars contain information on unusual
         minor planets and routine data on comets.  They are published
   on behalf of Commission 20 of the International Astronomical Union by the
          Minor Planet Center, Smithsonian Astrophysical Observatory,
                          Cambridge, MA 02138, U.S.A.

             Prepared using the Tamkin Foundation Computer Network

                              MPC@CFA.HARVARD.EDU
          URL http://www.cfa.harvard.edu/iau/mpc.html  ISSN 1523-6714

                                   2007 VQ4

                           Revision to MPEC 2007-V44

Additional Observations:
     K07V04Q & 1991 07 02.44644 15 00 25.88 -28 11 54.0                 EA019260
     K07V04Q & 1991 07 02.48810 15 00 25.72 -28 12 14.9                 EA019260
     K07V04Q  C2002 09 29.48416 01 57 36.11 -16 09 34.5          19.8 R EA019608
     K07V04Q  C2002 09 29.49507 01 57 35.50 -16 09 38.4          20.4 R EA019608
     K07V04Q  C2002 09 29.50590 01 57 34.95 -16 09 40.7          20.3 R EA019608
     K07V04Q  C2002 10 06.46923 01 51 03.34 -16 41 26.8          20.2 R EA019608
     K07V04Q  C2002 10 08.32659 01 49 12.04 -16 48 47.6          20.0 R EA019644
     K07V04Q  C2002 10 08.37013 01 49 09.32 -16 48 57.9          20.1 R EA019644
     K07V04Q  C2002 11 04.18724 01 20 45.75 -17 19 10.7          21.0 R EA019644
     K07V04Q  C2002 12 05.08569 00 58 23.20 -14 39 14.1          20.3 R EA019644
     K07V04Q  C2002 12 05.12682 00 58 22.25 -14 38 54.5          20.3 R EA019644

Observer details:
260 Siding Spring-DSS.  Measurer R. Matson.  1.2-m Schmidt.
608 Haleakala-NEAT/MSSS.  Observers R. Bambery, E. Helin, S. Pravdo, M. Hicks,
    K. Lawrence, P. Kervin.  Measurer R. Matson.  1.2-m reflector + CCD.
644 Palomar Mountain/NEAT.  Observers E. F. Helin, S. Pravdo, K. Lawrence,
    K. Kuluhiwa, M. Hicks.  Measurer R. Matson.  1.2-m Schmidt + CCD.

First and last observations above in comparison with prediction:
Residuals in seconds of arc (or two decimals in degrees), reference and Delta-T
910702 260 0.19+ 0.17-    021205 644 42.5+ 35.8+    MPO130316   -0.0019 day

Orbital elements:
2007 VQ4                                                 Earth MOID = 0.5151 AU
Epoch 2007 Oct. 27.0 TT = JDT 2454400.5                 MPC
M 330.06318              (2000.0)            P               Q
n   0.23050176     Peri.   99.23078     -0.84272522     -0.37582839
a   2.6344294      Node    59.59266     +0.10763917     -0.81915576
e   0.5173995      Incl.   26.54614     +0.52747323     -0.43328611
P   4.28           H   15.8           G   0.15           U   1
Residuals in seconds of arc
910702 260  0.2+  0.8-    071113 H51  0.8+  0.7+    071215 379  0.5-  0.1-
910702 260  0.5-  0.3+    071113 H51  0.9-  0.6+    071215 379  0.1-  0.4-
020929 608  0.4-  0.0     071113 H51  0.0   1.5+    071216 H45  0.3+  0.2-
020929 608  0.6-  0.7-    071115 699  0.3+  0.5-    071216 H45  0.2+  0.1+
020929 608  0.1-  0.2+    071115 699  0.7+  0.2-    071216 H45  0.3+  0.3+
021006 608  0.2+  0.1+    071115 699  0.5+  0.1+    071216 H45  0.0   0.1+
021008 644  0.2-  0.8+    071116 H45  0.1+  0.0     071216 H45  0.1+  0.2+
021008 644  0.5-  0.4+    071116 H45  0.1-  0.0     071216 H45  0.2+  0.0
021104 644  0.5-  0.8-    071116 H45  0.2-  0.1+    071216 H45  0.2+  0.0
021205 644  0.0   0.2+    071116 H45  0.3-  0.1-    071216 H45  0.1+  0.1-
021205 644  0.6+  0.2+    071116 H45  0.1-  0.0     071216 379  0.5-  0.4+
071103 704  0.3+  0.5+    071116 H45  0.2-  0.1-    071216 379  0.8-  0.4-
071103 704  0.2+  0.2+    071116 H45  0.1+  0.1-    071216 379  1.2-  0.2+
071103 704  0.5+  0.5-    071120 448  0.0   0.2-    071216 379  1.0-  0.3-
071103 704  0.6+  0.7+    071120 448  0.1-  0.2-    071216 379  1.2-  0.4-
071103 704  0.5+  0.7+    071120 448  0.2-  0.2-    071217 H45  0.1+  0.2+
071104 704  0.1+  0.5-    071121 703  0.2-  0.3-    071217 H45  0.0   0.2+
071104 704  0.4+  0.3-    071121 703  0.3+  0.3-    071217 H45  0.1+  0.0
071104 704  0.1+  0.4-    071121 703  0.2-  0.3-    071217 H45  0.1+  0.2+
071104 704  0.1-  0.2-    071128 A78  0.4-  1.0-    071217 H45  0.3+  0.0
071104 704  0.4-  0.5-    071128 A78  1.1+  0.4+    071217 H45  0.5+  0.4-
071105 703  0.0   0.3+    071129 H45  0.1+  0.7-    071217 H45  0.5+  0.3-
071105 703  0.5-  0.8+    071129 H45  0.2+  0.5-    071217 379  0.0   0.1+
071105 704  0.5+  0.2-    071129 H45  0.1+  0.4-    071217 379  0.2-  0.4+
071105 703  0.3-  0.5-    071129 H45  0.3+  0.3-    071217 379  0.2-  0.2-
071105 704  0.2+  0.2+    071129 H45  0.0   0.6-    071217 379  0.0   0.3+
071105 703  0.5-  0.2+    071129 H45  0.2+  0.4-    071217 379  0.4-  0.3+
071105 704  0.3+  0.1-    071129 H45  0.3+  0.6-    071217 379  0.3-  0.3+
071105 704  0.4+  0.3+    071129 B03  1.2-  1.9+    071218 A24  0.1+  0.1+
071105 704  0.2+  0.1-    071129 B03  0.0   0.6+    071218 A24  0.2-  0.3+
071106 J95  0.6+  0.5-    071129 B03  0.8-  0.7+    071218 379  0.9-  0.2-
071106 J95  0.2+  0.3-    071204 H45  0.0   0.5-    071218 379  0.6-  0.0
071106 J95  0.0   0.1+    071204 H45  0.6+  0.1+    071218 379  0.0   0.3-
071106 J95  0.0   0.0     071204 H45  0.6+  0.0     071218 379  0.4-  0.5-
071106 673  0.1-  0.0     071204 H45  0.4+  0.1+    071219 704  0.4-  0.0
071106 673  0.2+  0.5-    071204 H45  0.5+  0.0     071219 704  0.2-  0.3+
071106 673  0.0   0.0     071204 H45  0.5+  0.1-    071219 704  0.5-  0.2+
071106 673  0.0   0.1+    071204 H45  0.5+  0.2-    071219 704  0.2+  0.1+
071107 H55  0.1-  0.0     071205 A24  0.1+  0.2-    071219 704  0.4-  0.2-
071107 H55  0.1-  0.0     071205 A24  0.2-  0.1-    071220 379  0.2+  0.1-
071107 H55  0.0   0.0     071205 A24  0.0   0.1-    071220 379  0.2+  0.4+
071107 704  0.1-  0.6+    071205 A24  0.0   0.2-    071220 379  0.4-  0.7-
071107 704  0.0   0.1-    071205 A24  0.0   0.1+    071221 A35  0.4-  0.0
071107 704  0.0   0.8+    071205 A24  0.1+  0.2-    071221 A35  0.0   0.2+
071107 704  0.1-  0.0     071205 379  0.8-  0.3-    071221 A35  0.2-  0.2+
071107 711  0.2-  0.3+    071205 379  0.2-  0.7-    071221 A35  0.1-  0.3+
071107 704  0.2-  0.5+    071205 379  0.4-  0.4-    071226 379  0.1+  0.7-
071107 711  0.1-  0.0     071205 379  0.0   0.1+    071226 379  0.2-  0.3-
071107 711  0.2-  0.0     071205 379  0.0   0.2+    071227 A48  0.1+  0.1+
071108 H45  0.2+  0.2+    071207 J66  0.2-  0.3+    071227 A48  0.1+  0.1-
071108 H45  0.4-  0.2+    071207 J66  0.2+  0.7+    071227 A48  0.1+  0.1+
071108 H45  0.5-  0.1-    071207 J66  0.2-  0.1-    071227 A48  0.4+  0.1-
071108 H45  0.4-  0.0     071208 379  0.2+  0.5-    071229 130  0.1-  0.3+
071108 H45  0.1-  0.1-    071208 379  0.6-  0.7-    071229 130  0.2-  0.3+
071108 H45  0.3-  0.1+    071208 379  0.7-  0.2+    071229 130  0.1+  0.0
071108 H45  0.1-  0.1-    071208 379  0.6+  0.3-    071229 130  0.2+  0.2+
071109 704  0.2-  0.1-    071209 379  0.2-  0.3+    071230 H45  0.2+  0.1+
071109 704  0.5+  0.1+    071209 379  0.1-  0.0     071230 H45  0.1+  0.1+
071109 704  0.7+  0.1+    071209 379  0.5-  0.2+    071230 H45  0.2-  0.5+
071109 704  0.2-  0.2-    071209 379  0.3-  0.3+    071230 H45  0.3+  0.3+
071110 147  0.1+  0.1-    071209 379  0.1-  0.0     071230 H45  0.3+  0.2+
071110 147  0.6-  0.2-    071209 379  0.3-  0.1-    071230 H45  0.2+  0.1+
071110 147  0.3+  0.6-    071213 B49  0.5+  0.2+    080102 H45  0.2+  0.1-
071112 711  0.2+  0.4+    071213 B49  0.4+  0.1+    080102 H45  0.4+  0.1+
071112 711  0.0   0.7+    071214 H45  0.3+  0.2+    080102 H45  0.1-  0.1+
071112 711  0.1+  0.5+    071214 H45  0.2+  0.3+    080102 H45  0.2+  0.2+
071112 711  0.3+  0.4+    071214 H45  0.1+  0.4+    080102 H45  0.2+  0.1-
071112 355  0.3-  0.1-    071214 H45  0.2+  0.2-    080102 H45  0.2+  0.0
071112 355  0.1-  0.4-    071214 H45  0.6+  0.0     080102 H45  0.2+  0.2+
071112 355  0.1+  0.0     071215 379  0.6+  0.5+
071112 355  0.0   0.4-    071215 379  0.1-  0.0

Ephemeris:
2007 VQ4                 a,e,i = 2.63, 0.52, 27                  q = 1.2714
Date    TT    R. A. (2000) Decl.     Delta      r     Elong.  Phase     V
2007 12 26    09 39.22   +64 07.6    0.651    1.474   127.6    31.9    17.1
2008 01 05    10 28.90   +70 14.5    0.621    1.425   123.7    35.0    17.0
2008 01 15    11 36.42   +74 49.5    0.607    1.381   118.6    38.7    17.0
2008 01 25    12 56.91   +77 16.2    0.602    1.343   113.6    42.2    17.0
2008 02 04    14 07.67   +77 47.8    0.600    1.313   109.3    45.1    17.0
2008 02 14    14 49.41   +77 14.2    0.599    1.290   106.2    47.3    17.0
2008 02 24    15 01.12   +76 09.0    0.595    1.276   104.5    48.6    17.0
2008 03 05    14 49.45   +74 31.9    0.587    1.271   104.3    49.1    17.0
2008 03 15    14 23.15   +71 56.4    0.575    1.276   105.7    48.6    17.0
2008 03 25    13 52.76   +67 48.7    0.563    1.290   108.4    47.2    16.9
2008 04 04    13 26.36   +61 47.1    0.553    1.313   112.2    44.8    16.8
2008 04 14    13 07.48   +53 49.9    0.552    1.344   116.6    41.9    16.8
2008 04 24    12 56.29   +44 23.4    0.566    1.382   120.5    38.8    16.8
2008 05 04    12 51.37   +34 16.3    0.600    1.426   122.9    36.4    16.9
2008 05 14    12 51.35   +24 22.8    0.657    1.476   123.1    35.0    17.2
2008 05 24    12 55.07   +15 24.1    0.736    1.529   121.2    34.5    17.5
2008 06 03    13 01.62   +07 37.9    0.836    1.586   117.7    34.5    17.8
2008 06 13    13 10.41   +01 03.5    0.953    1.645   113.3    34.5    18.2
2008 06 23    13 20.97   -04 27.9    1.085    1.706   108.5    34.4    18.6
2008 07 03    13 32.96   -09 07.8    1.229    1.769   103.5    34.0    18.9
2008 07 13    13 46.17   -13 06.7    1.382    1.832    98.5    33.3    19.2
2008 07 23    14 00.41   -16 32.8    1.543    1.896    93.4    32.3    19.5
2008 08 02    14 15.54   -19 32.5    1.709    1.960    88.2    31.2    19.8
2008 08 12    14 31.48   -22 10.7    1.879    2.024    83.1    29.8    20.0
2008 08 22    14 48.13   -24 30.8    2.050    2.088    77.9    28.3    20.2
2008 09 01    15 05.44   -26 35.3    2.222    2.151    72.8    26.6    20.4
2008 09 11    15 23.35   -28 26.0    2.393    2.213    67.5    24.9    20.6
2008 09 21    15 41.80   -30 04.1    2.561    2.275    62.3    23.0    20.7

Timothy B. Spahr             (C) Copyright 2008 MPC           M.P.E.C. 2008-A19

Read MPEC 2008-A18 Read MPEC 2008-A20


Our Web policy. Index to the CBAT/MPC/ICQ pages.


Valid HTML 4.01!